Regional Weather Roundup
Issued by NWS Little Rock, AR

Home | Current Version | Previous Version | Text Only | Print | Product List | Glossary Off
Versions: 1 2 3 4 5 6 7 8 9 10 11 12 13 14 15 16 17 18 19 20 21 22 23 24 25 26 27 28 29 30 31 32 33 34 35 36 37 38 39 40 41 42 43 44 45 46 47 48 49 50

005
ASUS44 KLZK 100612
RWRLZK

WEATHER ROUNDUP FOR ARKANSAS
NATIONAL WEATHER SERVICE LITTLE ROCK AR
1200 AM CST SAT DEC 10 2016

NOTE: "FAIR" INDICATES FEW OR NO CLOUDS BELOW 12,000 FEET WITH NO
SIGNIFICANT WEATHER AND/OR OBSTRUCTIONS TO VISIBILITY.

ARZ001-003-010-029-100700-
NORTHWEST ARKANSAS

CITY           SKY/WX    TMP DP  RH WIND       PRES   REMARKS
FAYETTEVILLE   CLOUDY    32  17  54 CALM      30.50F
6HR MIN TEMP:  32; 6HR MAX TEMP:  33;

FORT SMITH     CLOUDY    34  19  54 E7        30.55S WCI  28
6HR MIN TEMP:  33; 6HR MAX TEMP:  36;

HARRISON       CLOUDY    29  16  58 SE5       30.51F WCI  24
6HR MIN TEMP:  28; 6HR MAX TEMP:  29;

BENTONVILLE    CLOUDY    34  12  40 S6        30.49F WCI  29
6HR MIN TEMP:  34; 6HR MAX TEMP:  34;

ROGERS         CLOUDY    32  17  54 SE6       30.49F WCI  26
6HR MIN TEMP:  31; 6HR MAX TEMP:  32;

SILOAM SPGS    CLOUDY    32  16  51 S3        30.49F
6HR MIN TEMP:  32; 6HR MAX TEMP:  34;

HIGHFILL       CLOUDY    33  18  53 S5        30.48F WCI  29
6HR MIN TEMP:  33; 6HR MAX TEMP:  34;

$$

ARZ004-005-016-100700-
NORTH CENTRAL ARKANSAS

CITY           SKY/WX    TMP DP  RH WIND       PRES   REMARKS
BATESVILLE     CLEAR     23  18  80 CALM      30.60F
6HR MIN TEMP:  21; 6HR MAX TEMP:  30;

FLIPPIN        CLOUDY    27  19  74 CALM      30.53S
6HR MIN TEMP:  27; 6HR MAX TEMP:  32;

MTN HOME       CLOUDY    27  15  61 S3        30.54S
6HR MIN TEMP:  26; 6HR MAX TEMP:  30;

$$

ARZ040-041-100700-
WEST CENTRAL ARKANSAS

CITY           SKY/WX    TMP DP  RH WIND       PRES   REMARKS
MENA           CLOUDY    37  21  52 CALM      30.53F
MOUNT IDA      CLOUDY    34  19  54 CALM      30.53S
6HR MIN TEMP:  30; 6HR MAX TEMP:  35;

$$

ARZ009-017-025-026-028-100700-
NORTHEAST ARKANSAS

CITY           SKY/WX    TMP DP  RH WIND       PRES   REMARKS
CORNING        FAIR      25  25 100 S3        30.60F
JONESBORO      CLEAR     23  21  92 CALM      30.60F
6HR MIN TEMP:  23; 6HR MAX TEMP:  29;

NEWPORT        CLEAR     23  19  85 CALM      30.62S
6HR MIN TEMP:  23; 6HR MAX TEMP:  29;

WALNUT RIDGE   CLEAR     27  21  80 CALM      30.60S
6HR MIN TEMP:  27; 6HR MAX TEMP:  28;

BLYTHEVILLE    CLEAR     25  21  85 CALM      30.61F
6HR MIN TEMP:  25; 6HR MAX TEMP:  29;

$$

ARZ022-023-033-042-044-100700-
CENTRAL ARKANSAS

CITY           SKY/WX    TMP DP  RH WIND       PRES   REMARKS
LITTLE ROCK    PTCLDY    25  23  92 CALM      30.60F
6HR MIN TEMP:  25; 6HR MAX TEMP:  31;

N LITTLE ROCK    N/A     27  21  77 CALM      30.62F
6HR MIN TEMP:  27; 6HR MAX TEMP:  33;

JACKSONVILLE   CLEAR     22  19  87 NE1       30.59F
6HR MIN TEMP:  21; 6HR MAX TEMP:  29;

SEARCY         CLEAR     21  20  96 CALM      30.62F
6HR MIN TEMP:  20; 6HR MAX TEMP:  31;

HOT SPRINGS    CLOUDY    33  20  58 E5        30.57F WCI  29
6HR MIN TEMP:  28; 6HR MAX TEMP:  37;

RUSSELLVILLE   CLOUDY    28  24  85 CALM      30.57S
6HR MIN TEMP:  23; 6HR MAX TEMP:  29;

CLINTON        FAIR      21  19  93 CALM      30.59S
$$

ARZ036-100700-
EAST ARKANSAS

CITY           SKY/WX    TMP DP  RH WIND       PRES   REMARKS
WEST MEMPHIS   CLEAR     24  21  88 CALM      30.60F
6HR MIN TEMP:  23; 6HR MAX TEMP:  29;

$$

ARZ050-053-066-070-073-100700-
SOUTHWEST ARKANSAS

CITY           SKY/WX    TMP DP  RH WIND       PRES   REMARKS
ARKADELPHIA    CLOUDY    33  24  69 CALM      30.60F
6HR MIN TEMP:  30; 6HR MAX TEMP:  35;

CAMDEN         CLOUDY    30  23  74 CALM      30.61S
TEXARKANA      CLOUDY    37  23  56 VRB3      30.57S
6HR MIN TEMP:  37; 6HR MAX TEMP:  38;

EL DORADO      CLOUDY    27  24  89 CALM      30.59F
6HR MIN TEMP:  27; 6HR MAX TEMP:  33;

DE QUEEN       CLOUDY    38  24  57 E5        30.56S
6HR MIN TEMP:  37; 6HR MAX TEMP:  39;

$$

ARZ056-057-069-100700-
SOUTHEAST ARKANSAS

CITY           SKY/WX    TMP DP  RH WIND       PRES   REMARKS
PINE BLUFF     CLEAR     27  22  81 CALM      30.61F
6HR MIN TEMP:  26; 6HR MAX TEMP:  32;

STUTTGART      CLEAR     28  18  64 E5        30.61F WCI  23
6HR MIN TEMP:  28; 6HR MAX TEMP:  34;

MONTICELLO     CLEAR     26  22  84 CALM      30.61R
6HR MIN TEMP:  26; 6HR MAX TEMP:  33;


$$






USA.gov is the U.S. government's official web portal to all federal, state and local government web resources and services.